Buffalo, WY

8:17 PM MST on February 19, 2017 (GMT -0700)
Johnson County

Weather History for KBYG - October, 2013

Change the Weather History Date:

Monday, October 14, 2013

  Actual Average Record
Temperature  
Mean Temperature 35 °F 46 °F  
Max Temperature 39 °F 58 °F 79 °F (2014)
Min Temperature 31 °F 35 °F 26 °F (2008)
Degree Days  
Heating Degree Days 30 19  
Month to date heating degree days 290 231  
Since 1 July heating degree days 442 545  
Cooling Degree Days 0 0  
Month to date cooling degree days 0 0  
Year to date cooling degree days 709 491  
Moisture  
Dew Point 30 °F    
Average Humidity 80    
Maximum Humidity 96    
Minimum Humidity 64    
Precipitation  
Precipitation 0.02 in 0.04 in 0.14 in (1999)
Month to date precipitation 1.88 0.57  
Year to date precipitation 9.64 12.15  
Sea Level Pressure  
Sea Level Pressure 30.16 in    
Wind  
Wind Speed 27 mph (NNW)    
Max Wind Speed 43 mph    
Max Gust Speed 56 mph    
Visibility 5 miles    
Events Rain , Snow    
T = Trace of Precipitation, MM = Missing Value Source: NWS Daily Summary

Daily Weather History Graph

Daily Weather History Graph

Search for Another Location

Airport or City:

Trip Planner

Search our weather history database for the weather conditions in past years. The results will help you decide how hot, cold, wet, or windy it might be!

Date:

Astronomy

Oct. 14, 2013 Rise Set
Actual Time 7:21 AM MDT 6:23 PM MDT
Civil Twilight 6:51 AM MDT 6:53 PM MDT
Nautical Twilight 6:18 AM MDT 7:26 PM MDT
Astronomical Twilight 5:44 AM MDT 8:00 PM MDT
Moon 4:03 PM MDT (10/14) 2:30 AM MDT (10/14)
Length of Visible Light 12h 01m
Length of Day
11h 02m
Waxing Gibbous, 80% of the Moon is Illuminated
Oct 14
Waxing Gibbous
Oct 18
Full
Oct 26
Last Quarter
Nov 3
New
Nov 9
First Quarter

Hourly Weather History & Observations

Time (MDT) Temp. Windchill Dew Point Humidity Pressure Visibility Wind Dir Wind Speed Gust Speed Precip Events Conditions
12:23 AM 39.2 °F 30.8 °F 37.4 °F 93% 30.02 in 10.0 mi NW 15.0 mph 21.9 mph N/A   Overcast
12:53 AM 39.0 °F 30.3 °F 37.0 °F 93% 30.02 in 10.0 mi NNW 16.1 mph 27.6 mph N/A   Overcast
1:03 AM 39.2 °F 29.3 °F 35.6 °F 87% 30.02 in 10.0 mi NNW 20.7 mph 27.6 mph N/A   Overcast
1:19 AM 37.4 °F 28.9 °F 35.6 °F 93% 30.02 in 10.0 mi NNW 13.8 mph 27.6 mph 0.01 in Rain Light Rain
1:53 AM 37.0 °F 26.4 °F 35.1 °F 93% 30.01 in 10.0 mi NNW 20.7 mph 26.5 mph 0.01 in   Overcast
2:14 AM 37.4 °F 26.9 °F 35.6 °F 93% 30.02 in 10.0 mi NNW 20.7 mph 26.5 mph 0.00 in Rain Light Rain
2:53 AM 37.0 °F 26.2 °F 34.0 °F 89% 30.01 in 10.0 mi NNW 21.9 mph 28.8 mph 0.01 in   Overcast
3:25 AM 37.4 °F 26.6 °F 33.8 °F 87% 30.01 in 10.0 mi NNW 21.9 mph 27.6 mph N/A   Overcast
3:53 AM 36.0 °F 24.7 °F 34.0 °F 93% 30.01 in 10.0 mi North 21.9 mph 36.8 mph 0.00 in Rain Light Rain
4:20 AM 35.6 °F 23.0 °F 33.8 °F 93% 29.99 in 10.0 mi North 27.6 mph 39.1 mph 0.00 in Rain Light Rain
4:53 AM 35.1 °F 21.8 °F 32.0 °F 89% 30.01 in 10.0 mi North 29.9 mph 38.0 mph 0.00 in   Overcast
5:53 AM 34.0 °F 21.0 °F 32.0 °F 92% 30.02 in 10.0 mi North 26.5 mph 40.3 mph 0.00 in   Overcast
6:53 AM 34.0 °F 19.9 °F 30.9 °F 89% 30.04 in 9.0 mi North 32.2 mph 46.0 mph 0.00 in   Overcast
7:08 AM 33.8 °F 20.3 °F 30.2 °F 87% 30.02 in 7.0 mi NNW 28.8 mph 44.9 mph 0.00 in Snow Light Snow
7:24 AM 33.8 °F 20.3 °F 30.2 °F 87% 30.03 in 9.0 mi NNW 28.8 mph 47.2 mph 0.00 in   Overcast
7:50 AM 33.8 °F 20.1 °F 30.2 °F 87% 30.04 in 10.0 mi NNW 29.9 mph 42.6 mph 0.00 in   Overcast
7:53 AM 33.1 °F 18.9 °F 30.9 °F 92% 30.07 in 10.0 mi NNW 31.1 mph 40.3 mph 0.00 in   Overcast
8:53 AM 34.0 °F 20.3 °F 30.0 °F 85% 30.10 in 9.0 mi NNW 29.9 mph 41.4 mph 0.00 in Snow Light Snow
9:53 AM 34.0 °F 20.8 °F 30.0 °F 85% 30.12 in 4.0 mi NNW 27.6 mph 41.4 mph 0.00 in Snow Light Snow
10:05 AM 33.8 °F 20.1 °F 30.2 °F 87% 30.09 in 2.5 mi NNW 29.9 mph 40.3 mph 0.00 in Snow Light Snow
10:14 AM 33.8 °F 20.1 °F 30.2 °F 87% 30.09 in 2.5 mi NNW 29.9 mph 44.9 mph 0.00 in Snow Light Snow
10:42 AM 33.8 °F 20.1 °F 30.2 °F 87% 30.10 in 1.8 mi NNW 29.9 mph 44.9 mph 0.00 in Snow Light Snow
10:49 AM 35.6 °F 22.7 °F 30.2 °F 81% 30.10 in 3.0 mi NNW 28.8 mph 41.4 mph 0.00 in Snow Light Snow
10:53 AM 35.1 °F 21.2 °F 30.9 °F 85% 30.12 in 4.0 mi NNW 33.4 mph 42.6 mph 0.00 in Snow Light Snow
11:53 AM 35.1 °F 21.4 °F 30.0 °F 82% 30.14 in 4.0 mi NNW 32.2 mph 44.9 mph 0.00 in Snow Light Snow
12:18 PM 35.6 °F 22.1 °F 28.4 °F 75% 30.12 in 1.8 mi NNW 32.2 mph 50.6 mph 0.00 in Snow Light Snow
12:53 PM 34.0 °F 19.5 °F 30.0 °F 85% 30.16 in 1.2 mi NW 34.5 mph 46.0 mph 0.00 in Snow Light Snow
1:01 PM 33.8 °F 19.9 °F 30.2 °F 87% 30.13 in 1.5 mi NNW 31.1 mph 46.0 mph 0.00 in Snow Light Snow
1:49 PM 33.8 °F 19.0 °F 30.2 °F 87% 30.14 in 0.8 mi NNW 35.7 mph 49.5 mph 0.00 in Snow Light Snow
1:53 PM 33.1 °F 18.2 °F 30.0 °F 89% 30.19 in 0.8 mi NNW 34.5 mph 52.9 mph 0.00 in Snow Light Snow
2:08 PM 33.8 °F 18.5 °F 30.2 °F 87% 30.14 in 0.8 mi NW 39.1 mph 54.1 mph 0.00 in Snow Light Snow
2:47 PM 33.8 °F 19.0 °F 30.2 °F 87% 30.15 in 1.0 mi NW 35.7 mph 48.3 mph 0.00 in Snow Light Snow
2:53 PM 33.1 °F 17.8 °F 30.0 °F 89% 30.20 in 1.2 mi NNW 36.8 mph 44.9 mph 0.00 in Snow Light Snow
3:07 PM 33.8 °F 19.6 °F 30.2 °F 87% 30.16 in 3.0 mi NNW 32.2 mph 48.3 mph 0.00 in Snow Light Snow
3:17 PM 33.8 °F 18.6 °F 30.2 °F 87% 30.16 in 3.0 mi NNW 38.0 mph 50.6 mph 0.00 in Snow Light Snow
3:40 PM 33.8 °F 20.1 °F 30.2 °F 87% 30.17 in 3.0 mi NNW 29.9 mph 41.4 mph 0.00 in Snow Light Snow
3:45 PM 33.8 °F 19.2 °F 30.2 °F 87% 30.17 in 2.0 mi NNW 34.5 mph 49.5 mph 0.00 in Snow Light Snow
3:53 PM 33.1 °F 18.7 °F 30.0 °F 89% 30.22 in 1.8 mi NW 32.2 mph 43.7 mph 0.00 in Snow Light Snow
4:20 PM 33.8 °F 19.4 °F 28.4 °F 81% 30.19 in 1.0 mi NNW 33.4 mph 48.3 mph 0.00 in Snow Light Snow
4:29 PM 33.8 °F 20.1 °F 30.2 °F 87% 30.19 in 2.0 mi NNW 29.9 mph 41.4 mph 0.00 in Snow Light Snow
4:53 PM 33.1 °F 19.6 °F 28.9 °F 85% 30.26 in 2.0 mi NNW 27.6 mph 47.2 mph 0.00 in Snow Light Snow
5:06 PM 32.0 °F 18.6 °F 28.4 °F 87% 30.21 in 3.0 mi NNW 25.3 mph 42.6 mph 0.00 in Snow Light Snow
5:23 PM 32.0 °F 17.6 °F 28.4 °F 87% 30.22 in 4.0 mi NNW 29.9 mph 44.9 mph 0.00 in Snow Light Snow
5:53 PM 32.0 °F 16.7 °F 27.0 °F 82% 30.31 in 8.0 mi NNW 34.5 mph 48.3 mph 0.00 in Snow Light Snow
6:53 PM 33.1 °F 19.6 °F 27.0 °F 78% 30.33 in 6.0 mi NNW 27.6 mph 42.6 mph 0.00 in Snow Light Snow
7:18 PM 33.8 °F 20.5 °F 26.6 °F 75% 30.28 in 4.0 mi NNW 27.6 mph 38.0 mph 0.00 in Snow Light Snow
7:36 PM 33.8 °F 20.3 °F 26.6 °F 75% 30.27 in 9.0 mi NW 28.8 mph 41.4 mph 0.00 in Snow Light Snow
7:53 PM 33.1 °F 19.1 °F 27.0 °F 78% 30.34 in 7.0 mi NW 29.9 mph 42.6 mph 0.00 in Snow Light Snow
8:04 PM 32.0 °F 18.4 °F 26.6 °F 80% 30.28 in 2.0 mi NNW 26.5 mph 41.4 mph 0.00 in Snow Light Snow
8:12 PM 32.0 °F 18.6 °F 28.4 °F 87% 30.29 in 1.2 mi NNW 25.3 mph 40.3 mph 0.00 in Snow Light Snow
8:21 PM 30.2 °F 17.1 °F 28.4 °F 93% 30.29 in 1.0 mi NNW 21.9 mph 35.7 mph 0.00 in Snow Light Snow
8:27 PM 30.2 °F 16.8 °F 28.4 °F 93% 30.29 in 1.2 mi NNW 23.0 mph 35.7 mph 0.00 in Snow Light Snow
8:51 PM 32.0 °F 19.5 °F 28.4 °F 87% 30.30 in 2.0 mi NNW 21.9 mph 31.1 mph 0.00 in Snow Light Snow
8:53 PM 32.0 °F 19.5 °F 28.9 °F 88% 30.37 in 2.5 mi NNW 21.9 mph 31.1 mph 0.00 in Snow Light Snow
9:10 PM 32.0 °F 19.8 °F 28.4 °F 87% 30.30 in 6.0 mi NNW 20.7 mph 27.6 mph 0.00 in Snow Light Snow
9:53 PM 33.1 °F 20.9 °F 25.0 °F 72% 30.38 in 10.0 mi NNW 21.9 mph 27.6 mph 0.00 in Snow Light Snow
10:53 PM 34.0 °F 23.4 °F 23.0 °F 64% 30.38 in 10.0 mi NNW 17.3 mph 27.6 mph 0.00 in   Overcast
11:53 PM 33.1 °F 24.9 °F 25.0 °F 72% 30.39 in 10.0 mi NNW 10.4 mph 21.9 mph N/A   Overcast